Regional Weather Roundup
Issued by NWS

Home | Current Version | Previous Version | Text Only | Print | Product List | Glossary Off
Versions: 1 2 3 4 5 6 7 8 9 10 11 12 13 14 15 16 17 18 19 20 21 22 23 24 25 26 27 28 29 30 31 32 33 34 35 36 37 38 39 40 41 42 43 44 45 46 47 48 49 50

000
ASUS45 KTFX 210410
RWRMT
MONTANA REGIONAL WEATHER ROUNDUP
NATIONAL WEATHER SERVICE GREAT FALLS MT
900 PM MST SAT JAN 20 2018

NOTE: "FAIR" INDICATES FEW OR NO CLOUDS BELOW 12000 FEET WITH NO
SIGNIFICANT WEATHER AND/OR OBSTRUCTIONS TO VISIBILITY.

MTZ001>007-043-210500-
WEST OF THE DIVIDE

CITY           SKY/WX    TMP DP  RH WIND       PRES   REMARKS
KALISPELL      CLOUDY    30  28  92 S5        30.02R
MISSOULA       FAIR      28  23  81 W6        30.05R WCI  22
BUTTE          CLOUDY    20  15  81 SE3       29.98S
MULLAN PASS    CLOUDY    22  20  92 SW6       29.94S FOG     WCI  14
ANACONDA         N/A     25  18  74 CALM      30.00R
DEER LODGE       N/A     25  21  86 CALM      30.02S
EUREKA           N/A     32  27  80 MISG      30.01R
HAMILTON         N/A     32  21  64 S7        30.04R WCI  26
RONAN            N/A     34  27  75 S6        30.04S WCI  29
$$

MTZ008-052>055-210500-
SOUTHWEST MONTANA

CITY           SKY/WX    TMP DP  RH WIND       PRES   REMARKS
BOZEMAN        CLOUDY    25  19  78 CALM      30.00S
DILLON         CLOUDY    20  15  81 S5        29.99R
ENNIS          CLOUDY    21  18  86 CALM      30.02S
W YELLOWSTONE  MOCLDY     0  -2  92 CALM      29.94R
$$

MTZ009-010-012-014-046-048-049-054-210500-
EAST SLOPES AND CENTRAL MONTANA

CITY           SKY/WX    TMP DP  RH WIND       PRES   REMARKS
CUT BANK       FAIR      28  20  71 W16       29.88S WCI  16
GREAT FALLS    FAIR      26  19  74 SW13      29.93S WCI  15
MALMSTROM AFB  FAIR      26  20  79 SW12      29.95R WCI  16
HELENA         FAIR      26  18  71 SE5       29.99R
AUGUSTA        FAIR      26  17  68 SW6       29.91R WCI  20
BOWMANS CRNR   FAIR      23  17  78 S10       29.92R WCI  13
CHOTEAU          N/A     30  18  59 W7G13     29.92R WCI  23
FAIRFIELD      FAIR      26  17  67 SW7       29.92R WCI  19
POWER          FAIR      20  14  79 SW12      29.91S WCI   7
RAYNESFORD     FAIR      31  17  55 SW18      29.94R WCI  19
ULM            FAIR      26  20  80 S6        29.95S WCI  19
WHITE SULPHUR    N/A     21  16  79 CALM      29.95R
$$

MTZ011-013-016-021-045-047-050-051-210500-
NORTH CENTRAL MONTANA

CITY           SKY/WX    TMP DP  RH WIND       PRES   REMARKS
HAVRE          FAIR      23  18  81 SW9       29.91R WCI  13
LEWISTOWN      FAIR      26  16  65 CALM      29.93S
N BAR RANCH    FAIR      23  10  58 W7        29.94S WCI  15
CHINOOK          N/A     18  16  93 E3        29.92R
DENTON         FAIR      25  18  76 MISG      29.90R
GEYSER         FAIR      27  18  69 W14       29.93R WCI  15
GRASS RANGE    FAIR      27  18  68 SW14      29.90S WCI  16
STANFORD       FAIR      26  18  71 W8        29.92S WCI  18
WINIFRED       FAIR      30  20  67 W8        29.92R WCI  22
$$

MTZ017>020-022>027-061-062-210500-
NORTHEAST MONTANA

CITY           SKY/WX    TMP DP  RH WIND       PRES   REMARKS
GLASGOW        FAIR      24  20  84 CALM      29.92S
GLENDIVE       FAIR      24  19  81 S5        29.96S
JORDAN           N/A     15  11  83 W6        29.94S WCI   6
MALTA          CLEAR     10   9  92 W7        29.93R WCI   0
SIDNEY         FAIR      23  20  88 CALM      29.96R
WOLF POINT     FAIR      14  10  84 SW7       29.95R WCI   4
PLENTYWOOD       N/A     21  18  86 CALM      29.91R
POPLAR           N/A     19  18  93 SE3       29.96R
$$

MTZ028>42-056>058-210500-
SOUTHCENTRAL AND SOUTHEAST MONTANA

CITY           SKY/WX    TMP DP  RH WIND       PRES   REMARKS
BAKER          FAIR      25  20  81 CALM      29.97R
BILLINGS       FAIR      26  17  68 SW9       29.96S WCI  17
LIVINGSTON     CLOUDY    26  19  74 NW8       29.97R WCI  18
MILES CITY     FAIR      20  16  84 W7        29.97R WCI  11
BIG TIMBER     CLEAR     25  16  68 SW18      29.96S WCI  11
FORSYTH          N/A     25  18  74 CALM      29.97S
HARLOWTON      FAIR      26  16  67 W20       29.94S WCI  12
LAUREL           N/A     25  16  68 CALM      29.98R
$$

REGIONAL REPORTS...DAKOTAS

CITY           SKY/WX    TMP DP  RH WIND       PRES   REMARKS
WILLISTON      FAIR      21  17  84 SW7       29.93S WCI  12
MINOT          FAIR      27  20  75 W12       29.92R WCI  17
DICKINSON      FAIR      26  20  77 W10       29.91S WCI  16
BEACH          FAIR      23  19  86 SW8       29.98R WCI  14
CROSBY         FAIR      16  14  93 S10       29.92R WCI   3
TIOGA          FAIR      16  16 100 W5        29.93R
BISMARCK       FAIR      29  24  82 W8        29.95R WCI  21
GRAND FORKS    FAIR      20  19  96 S6        29.90R WCI  12
FARGO          FAIR      30  27  88 W5        29.92R
BUFFALO SD       N/A     28  22  78 W9        29.89R WCI  19
RAPID CITY     LGT SNOW  31  27  85 N8        29.98R FOG     WCI  23
$$

REGIONAL REPORTS...WYOMING/IDAHO/WASHINGTON

CITY           SKY/WX    TMP DP  RH WIND       PRES   REMARKS
GILLETTE       CLOUDY    25  22  88 SW5       29.94S
SHERIDAN       FAIR      27  19  72 CALM      29.95F
BUFFALO WY     CLOUDY    26  14  60 NW5       29.92F
CODY           FAIR      25  22  88 S5        29.95R
YELLOWSTONE LA   N/A      0  -3  87 CALM      29.91R
IDAHO FALLS    FAIR      24  17  74 N7        29.99R WCI  16
SALMON         CLOUDY    27  23  85 CALM      30.07R
BOISE          CLOUDY    36  27  69 CALM      30.10S
SPOKANE        MOCLDY    32  29  88 S7        30.06S WCI  26
$$

REGIONAL REPORTS...ALBERTA

CITY           SKY/WX    TMP DP  RH WIND       PRES   REMARKS
CALGARY        MOCLDY    34  10  37 W10       29.77R WCI  26
CARDSTON         N/A     30  18  59 SW6         N/A  WCI  24
EDMONTON       CLOUDY    19  18  93 NE2       29.81S
FORT MCMURRAY  LGT SNOW  16  14  93 N3        29.88R
HIGH LEVEL     FLURRIES  16  12  86 N5        29.92S
LETHBRIDGE     PTCLDY    36  21  55 W23G30    29.84F WCI  24
LLOYDMINSTER   FLURRIES  23  21  93 SW3       29.82R
MEDICINE HAT   CLEAR     27  21  80 SW7       29.85R WCI  19
MILK RIVER       N/A     23  18  80 W6          N/A  WCI  16
ONEFOUR          N/A     25  18  74 NW10        N/A  WCI  15
PEACE RIVER    FLURRIES  19  18  93 NE8       29.85R WCI   9
PINCHER CREEK  CLOUDY    32  21  64 W28G36    29.85F WCI  18
WATERTON GATE    N/A     32  18  55 SW17G25     N/A  WCI  21
$$

REGIONAL REPORTS...SASKATCHEWAN

CITY           SKY/WX    TMP DP  RH WIND       PRES   REMARKS
CORONACH         N/A     14  12  92 SE3         N/A
CYPRESS HILLS    N/A     23  16  74 W5          N/A
ESTEVAN        CLEAR     14  12  92 W5        29.90R
MOOSE JAW        N/A     18  16  93 SW5         N/A
PRINCE ALBERT  CLOUDY    19  14  79 SE2       29.90S
REGINA         CLEAR     16  14  93 VRB2      29.88R
ROCKGLEN         N/A     18  14  86 W6          N/A  WCI   9
SASKATOON      PTCLDY    16  14  93 SW6       29.89R WCI   7
SWIFT CURRENT  CLEAR     19  14  79 S9        29.83R WCI   9
VAL MARIE        N/A      7   5  92 S2          N/A
$$



USA.gov is the U.S. government's official web portal to all federal, state and local government web resources and services.